{"data":{"norad_id":67843,"intl_designator":"2026-033Y","name":"STARLINK-36589","alt_names":[],"object_type":"PAYLOAD","status":"ACTIVE","operator":null,"country":"US","launch_date":"2026-02-16","launch_site_code":"AFETR","launch_vehicle":null,"mission":null,"orbit_class":"UNKNOWN","rcs_meters":null,"size_class":null,"mass_kg":null,"dimensions":null,"purposes":["comms"],"wikipedia_slug":null,"has_3d_model":false,"image_url":null,"decayed_at":null,"tle_current":{"epoch":"2026-09-19T06:43:45.175008Z","epoch_age_seconds":171899,"freshness":"FRESH","line1":"1 67843U 26033Y   26262.28038397  .00017909  00000+0  65839-3 0  9999","line2":"2 67843  43.0001 253.5384 0000877 270.9929  89.0822 15.27598102 34284","mean_motion":15.27598102,"eccentricity":8.77e-5,"inclination_deg":43.0001,"raan_deg":253.5384,"arg_perigee_deg":270.9929,"mean_anomaly_deg":89.0822,"bstar":0.00065839,"rev_number":3428,"period_min":94.265631654994,"perigee_km":482.39317140777,"apogee_km":483.59661394174,"semimajor_km":6861.1318926748,"source":"CELESTRAK","updated_at":"2026-09-20T09:00:43.671610Z"}}}